This is the latest recevied weather packets stored in our database for station/object KC3WWU. If no packets are shown the sender has not sent any weather packets the latest 10 day(s).
| Time | Temp. | Humidity | Pressure | Rain* | Wind** | Luminosity | Snow |
|---|---|---|---|---|---|---|---|
| 1777674866 | 7.22° C | 93% | 1009 hPa | 0 mm | - | 40 W/m² | - |
| 1777674562 | 7.22° C | 93% | 1009.4 hPa | 0 mm | - | 65 W/m² | - |
| 1777674261 | 7.22° C | 93% | 1009.1 hPa | 0 mm | - | 49 W/m² | - |
| 1777673956 | 7.22° C | 93% | 1009.3 hPa | 0 mm | - | 30 W/m² | - |
| 1777673653 | 7.22° C | 92% | 1009.2 hPa | 0 mm | - | 29 W/m² | - |
| 1777673351 | 7.78° C | 91% | 1009.2 hPa | 0 mm | - | 28 W/m² | - |
| 1777673048 | 7.78° C | 90% | 1009.1 hPa | 0 mm | - | 64 W/m² | - |
| 1777672744 | 7.78° C | 90% | 1009.1 hPa | 0 mm | - | 68 W/m² | - |
| 1777672441 | 7.78° C | 90% | 1009.1 hPa | 0 mm | - | 67 W/m² | - |
| 1777672136 | 7.78° C | 89% | 1009.1 hPa | 0 mm | - | 63 W/m² | - |
| 1777671831 | 7.78° C | 90% | 1009.1 hPa | 0 mm | - | 69 W/m² | - |
| 1777671527 | 7.78° C | 90% | 1008.7 hPa | 0 mm | - | 71 W/m² | - |
| 1777671224 | 7.78° C | 90% | 1008.9 hPa | 0 mm | - | 98 W/m² | - |
| 1777670920 | 7.78° C | 89% | 1008.8 hPa | 0 mm | - | 112 W/m² | - |
| 1777670617 | 7.78° C | 90% | 1008.9 hPa | 0 mm | - | 105 W/m² | - |
| 1777670314 | 7.78° C | 94% | 1008.8 hPa | 0 mm | - | 134 W/m² | - |
| 1777670012 | 7.78° C | 93% | 1008.9 hPa | 0 mm | - | 164 W/m² | - |
| 1777669708 | 7.78° C | 92% | 1009 hPa | 1.78 mm | - | 130 W/m² | - |
| 1777669406 | 7.78° C | 90% | 1008.9 hPa | 1.78 mm | - | 70 W/m² | - |
| 1777669102 | 7.78° C | 88% | 1008.7 hPa | 1.78 mm | - | 58 W/m² | - |
| 1777668799 | 7.78° C | 84% | 1008.9 hPa | 0 mm | - | 70 W/m² | - |
| 1777668496 | 8.33° C | 84% | 1008.8 hPa | 0 mm | - | 65 W/m² | - |
| 1777668192 | 8.33° C | 82% | 1008.5 hPa | 0 mm | - | 87 W/m² | - |
| 1777667888 | 8.33° C | 81% | 1008.8 hPa | 0 mm | - | 101 W/m² | - |
| 1777667586 | 8.33° C | 83% | 1008.8 hPa | 0 mm | - | 124 W/m² | - |
* Rain latest hour (hover to see other rain measurements)
** Current wind speed in m/s (hover to see current wind gust speed)